[[{"header":{"parameterUnit":"m.s-1","parameterCategory":1,"la1":30.2991,"la2":30.254,"lo1":-89.0895,"lo2":-89.0444,"dy":0.0017,"dx":0.0017,"nx":28,"ny":28,"refTime":"2024-02-13T03:00:00:Z","depth":0,"parameterNumber":2,"parameterNumberName":"U-component_of_WINDS"},"data":[0,0,0,0,0,0,0,0,0,0,0,0,0,0,0,0,0,0,0,0,0,0,0,0,0,0,0,0,0,0,0,0,0,0,0,0,0,0,0,0,0,0,0,0,0,0,0,0,0,0,0,0,0,0,0,0,0,0,0.5246,0.5246,0,0.5246,0.5247,0.5247,0.5228,0.5228,0.5227,0.5227,0.5228,0.5228,0.5229,0,0,0,0,0,0,0,0,0,0,0,0,0,0.5229,0.523,0.5246,0.5246,0.5246,0.5246,0.5247,0.5247,0.5228,0.5228,0.5227,0.5227,0.5228,0.5228,0.5229,0,0,0,0,0,0,0,0,0,0,0,0,0,0.5234,0.523,0.5246,0.5237,0.5236,0.5246,0.5247,0.5247,0.5229,0.5228,0.5227,0.5226,0.5227,0.5228,0.5229,0.5248,0,0,0.5231,0.5231,0,0,0,0,0,0,0,0,0.5234,0.5235,0.5238,0.5237,0.5236,0.5237,0.5241,0.5247,0.5229,0.5231,0.5227,0.5226,0.5231,0.5232,0.5233,0.5248,0.5248,0.5231,0.5231,0.5232,0.5232,0,0,0,0,0,0,0,0.5233,0.5234,0.5246,0.5238,0.5237,0.5233,0.5233,0.5242,0.5235,0.5231,0.523,0.523,0.5231,0.5233,0.5233,0.5248,0.5231,0.5232,0.5232,0.5232,0.528,0.5281,0,0,0,0,0,0,0.5234,0.5234,0.5246,0.5246,0.5233,0.5234,0.5234,0.5237,0.5235,0.5234,0.5231,0.5229,0.5232,0.5232,0.5233,0.5257,0.5232,0.5232,0.5233,0.5279,0.528,0.5281,0,0,0,0,0,0,0.5234,0.5235,0.5246,0.524,0.5241,0.5235,0.5239,0.5238,0.524,0.5235,0.5234,0.5234,0.5231,0.5232,0.5245,0.5257,0.5233,0.5233,0.5278,0.528,0.5281,0.5303,0,0,0,0,0,0,0.5234,0.5235,0.5242,0.524,0.5241,0.5257,0.524,0.5238,0.5241,0.5239,0.5238,0.5237,0.5231,0.5244,0.5246,0.5257,0.5234,0.5277,0.5279,0.528,0.5302,0.5305,0.5308,0,0,0,0,0,0.5233,0.5248,0.5243,0.5244,0.525,0.5258,0.5259,0.5251,0.5242,0.5249,0.5246,0.5237,0.5255,0.5245,0.5247,0.5259,0.5277,0.5278,0.528,0.53,0.5305,0.5308,0,0,0,0,0,0,0.5252,0.5248,0.5242,0.5256,0.5258,0.5255,0.5264,0.5256,0.526,0.5258,0.5249,0.5249,0.5263,0.5262,0.5252,0.5278,0.5264,0.5266,0.5279,0.5283,0.5286,0.5286,0.5235,0,0,0,0,0,0.5258,0.5264,0.5261,0.5274,0.5275,0.5269,0.5273,0.5267,0.5268,0.5268,0.5266,0.5268,0.5274,0.5278,0.5283,0.5301,0.5301,0.531,0.5314,0.5317,0.5319,0.533,0.5334,0.5287,0.5287,0.5287,0,0,0.527,0.5268,0.5273,0.5278,0.5278,0.5286,0.527,0.5278,0.5285,0.527,0.5282,0.5281,0.5282,0.5297,0.5304,0.5297,0.5332,0.5319,0.5321,0.5322,0.5332,0.5337,0.5341,0.5289,0.5288,0.5288,0,0,0.5296,0.5295,0.5307,0.5308,0.5309,0.5305,0.5308,0.5307,0.5306,0.5318,0.5307,0.5314,0.5325,0.5326,0.5329,0.5357,0.5349,0.5359,0.5377,0.5388,0.5392,0.5395,0.5407,0.5411,0.5361,0.5361,0.5361,0,0.5311,0.5322,0.5314,0.5324,0.5327,0.5315,0.5327,0.5328,0.5331,0.5334,0.5325,0.5339,0.5339,0.5356,0.5363,0.5364,0.5368,0.5359,0.5392,0.5395,0.5398,0.5409,0.5413,0.5363,0.5362,0.5362,0.5362,0,0.5342,0.535,0.5359,0.5363,0.5367,0.5378,0.5372,0.5377,0.5372,0.5369,0.5382,0.5382,0.5387,0.5391,0.5385,0.5407,0.5403,0.5393,0.5379,0.5404,0.5414,0.5418,0.5365,0.5364,0.5364,0.5363,0,0,0.538,0.5379,0.5383,0.5385,0.5386,0.5392,0.5403,0.5409,0.5414,0.5416,0.5426,0.5436,0.5428,0.543,0.5425,0.5434,0.5459,0.5424,0.5424,0.5431,0.5485,0.5493,0.5498,0.5453,0.5454,0.5455,0.5486,0,0.5407,0.5425,0.5419,0.5439,0.5447,0.5435,0.5445,0.5447,0.5445,0.5452,0.545,0.5458,0.5445,0.5447,0.5456,0.5454,0.547,0.5451,0.5463,0.5464,0.5464,0.5503,0.5511,0.5541,0.5489,0.549,0.549,0,0.544,0.5445,0.5465,0.5466,0.5469,0.5478,0.5484,0.549,0.5492,0.549,0.5494,0.5487,0.5499,0.5484,0.5501,0.5489,0.5493,0.5493,0.5494,0.5496,0.5479,0.5507,0.555,0.5555,0.5496,0.5496,0.5495,0,0.5468,0.5479,0.5493,0.5495,0.5496,0.5502,0.5503,0.5505,0.5509,0.5514,0.5517,0.5523,0.5527,0.5532,0.5527,0.5516,0.5545,0.5529,0.5545,0.5545,0.5552,0.5552,0.5597,0.5553,0.5553,0.5553,0.5553,0,0.5499,0.5512,0.5506,0.5514,0.5529,0.5522,0.5537,0.5537,0.5538,0.5547,0.5538,0.5546,0.5539,0.5547,0.5543,0.5559,0.556,0.5559,0.5558,0.5561,0.5561,0.5564,0.5563,0.5554,0.5553,0.5553,0.5553,0,0.5533,0.5528,0.5543,0.5543,0.5543,0.5555,0.5555,0.5563,0.5561,0.5573,0.5575,0.5571,0.5581,0.5576,0.5586,0.5583,0.5604,0.5599,0.5603,0.5602,0.5618,0.5618,0.5668,0.5675,0.5625,0.5626,0.5626,0,0.5553,0.5564,0.5565,0.557,0.5572,0.558,0.5585,0.5579,0.5584,0.5588,0.5597,0.5605,0.5612,0.5628,0.5626,0.5634,0.5631,0.5648,0.5632,0.5635,0.5633,0.5633,0.5635,0.5651,0.5652,0.5653,0.5653,0,0.5591,0.5589,0.5596,0.5603,0.5609,0.5614,0.5619,0.5624,0.5617,0.5624,0.5634,0.5639,0.565,0.5659,0.5666,0.5667,0.566,0.5658,0.5662,0.5666,0.5668,0.5669,0.5613,0.5657,0.5657,0.5656,0.5656,0.5656,0.562,0.5629,0.5632,0.5641,0.5643,0.5648,0.5657,0.5656,0.5664,0.5672,0.5667,0.5679,0.5683,0.5691,0.5694,0.5703,0.5697,0.5702,0.5704,0.5706,0.5709,0.5666,0.5704,0.5704,0.5704,0.5704,0.5704,0,0.5659,0.566,0.5668,0.5675,0.5682,0.5674,0.5679,0.5686,0.5696,0.57,0.5707,0.5719,0.5728,0.5728,0.5737,0.5745,0.5742,0.5747,0.5747,0.5748,0.5713,0.571,0.575,0.575,0.575,0.575,0.575,0.575,0.568,0.5696,0.5694,0.5711,0.5712,0.5724,0.5728,0.5732,0.5735,0.5749,0.5757,0.5757,0.5759,0.5768,0.5777,0.5777,0.5781,0.5788,0.5787,0.5755,0.575,0.5746,0.5742,0.5789,0.5789,0.5821,0.5822,0.5822]},{"header":{"parameterUnit":"m.s-1","parameterCategory":1,"la1":30.2991,"la2":30.254,"lo1":-89.0895,"lo2":-89.0444,"dy":0.0017,"dx":0.0017,"nx":28,"ny":28,"refTime":"2024-02-13T03:00:00:Z","depth":0,"parameterNumber":3,"parameterNumberName":"V-component_of_WINDS"},"data":[0,0,0,0,0,0,0,0,0,0,0,0,0,0,0,0,0,0,0,0,0,0,0,0,0,0,0,0,0,0,0,0,0,0,0,0,0,0,0,0,0,0,0,0,0,0,0,0,0,0,0,0,0,0,0,0,0,0,-2.7352,-2.7354,0,-2.7495,-2.7496,-2.7498,-2.7542,-2.7541,-2.7541,-2.754,-2.7684,-2.7689,-2.7693,0,0,0,0,0,0,0,0,0,0,0,0,0,-2.7118,-2.7122,-2.7352,-2.7354,-2.7356,-2.7494,-2.7496,-2.7498,-2.7542,-2.7541,-2.7541,-2.754,-2.7683,-2.7688,-2.7693,0,0,0,0,0,0,0,0,0,0,0,0,0,-2.7236,-2.7123,-2.7352,-2.7394,-2.74,-2.7494,-2.7496,-2.7499,-2.7542,-2.7541,-2.754,-2.7539,-2.7681,-2.7688,-2.7694,-2.7756,0,0,-2.7715,-2.7718,0,0,0,0,0,0,0,0,-2.7229,-2.7244,-2.7386,-2.7392,-2.7398,-2.75,-2.7467,-2.7585,-2.7543,-2.7488,-2.754,-2.7539,-2.7624,-2.7635,-2.7664,-2.7763,-2.7769,-2.7715,-2.7719,-2.7722,-2.7724,0,0,0,0,0,0,0,-2.7221,-2.7238,-2.7408,-2.7388,-2.7395,-2.7406,-2.7422,-2.7489,-2.756,-2.7493,-2.7496,-2.7513,-2.7626,-2.7657,-2.7668,-2.7771,-2.7715,-2.7721,-2.7725,-2.7728,-2.7928,-2.793,0,0,0,0,0,0,-2.7205,-2.7231,-2.7404,-2.7413,-2.7309,-2.7411,-2.7429,-2.7468,-2.7559,-2.7572,-2.7513,-2.7514,-2.7646,-2.766,-2.7673,-2.7751,-2.7722,-2.7729,-2.7732,-2.7927,-2.7929,-2.793,0,0,0,0,0,0,-2.72,-2.722,-2.7398,-2.7323,-2.7347,-2.7416,-2.746,-2.7471,-2.7502,-2.7575,-2.7587,-2.7532,-2.7646,-2.7663,-2.7735,-2.7757,-2.7732,-2.7738,-2.7926,-2.7928,-2.7929,-2.7908,0,0,0,0,0,0,-2.7193,-2.7218,-2.7242,-2.7323,-2.735,-2.7458,-2.7461,-2.7475,-2.7514,-2.7516,-2.7596,-2.7608,-2.7647,-2.7725,-2.7742,-2.7766,-2.7743,-2.7924,-2.7926,-2.7929,-2.7907,-2.7909,-2.7911,0,0,0,0,0,-2.7185,-2.723,-2.7243,-2.7264,-2.7382,-2.746,-2.7475,-2.7519,-2.7515,-2.754,-2.7587,-2.7605,-2.7752,-2.7732,-2.7751,-2.7777,-2.7923,-2.7926,-2.7929,-2.7906,-2.7909,-2.7911,0,0,0,0,0,0,-2.715,-2.7242,-2.7257,-2.7331,-2.7387,-2.7467,-2.7499,-2.752,-2.7579,-2.7578,-2.763,-2.7648,-2.7716,-2.7754,-2.773,-2.7842,-2.7838,-2.7845,-2.7815,-2.7817,-2.7819,-2.7808,-2.7748,0,0,0,0,0,-2.7151,-2.7206,-2.7283,-2.7341,-2.7368,-2.7429,-2.7464,-2.7494,-2.7554,-2.7578,-2.763,-2.7687,-2.7747,-2.7784,-2.7843,-2.7913,-2.7931,-2.7941,-2.7943,-2.7944,-2.7949,-2.7989,-2.7994,-2.794,-2.794,-2.794,0,0,-2.7153,-2.721,-2.7242,-2.7335,-2.7382,-2.7438,-2.7449,-2.7507,-2.7549,-2.7587,-2.7658,-2.7698,-2.7766,-2.7837,-2.7871,-2.7871,-2.7968,-2.7948,-2.7948,-2.7953,-2.7993,-2.7998,-2.8002,-2.7942,-2.7941,-2.7941,0,0,-2.7185,-2.7234,-2.7287,-2.7335,-2.7406,-2.7447,-2.7459,-2.7537,-2.7565,-2.7637,-2.7667,-2.7717,-2.7818,-2.7865,-2.7902,-2.7954,-2.7972,-2.7971,-2.798,-2.8019,-2.8023,-2.8027,-2.8045,-2.8051,-2.7976,-2.7976,-2.7976,0,-2.7179,-2.7264,-2.7312,-2.737,-2.741,-2.7447,-2.7501,-2.7545,-2.7631,-2.7658,-2.7657,-2.7785,-2.7833,-2.7916,-2.7928,-2.7957,-2.7973,-2.7962,-2.8019,-2.8023,-2.8028,-2.8046,-2.8052,-2.7976,-2.7976,-2.7976,-2.7976,0,-2.7253,-2.7312,-2.7346,-2.743,-2.7474,-2.7529,-2.7585,-2.7624,-2.765,-2.769,-2.7764,-2.7823,-2.7894,-2.7916,-2.7942,-2.8003,-2.8001,-2.8009,-2.8005,-2.8032,-2.8049,-2.8056,-2.7975,-2.7975,-2.7975,-2.7975,0,0,-2.7266,-2.7376,-2.7387,-2.7426,-2.7508,-2.7555,-2.7612,-2.7682,-2.7715,-2.7774,-2.7823,-2.7908,-2.7916,-2.7958,-2.7989,-2.8023,-2.806,-2.8027,-2.8029,-2.803,-2.8131,-2.8124,-2.8131,-2.8073,-2.8075,-2.8076,-2.8125,0,-2.7308,-2.7412,-2.7457,-2.7541,-2.7596,-2.7633,-2.7683,-2.7738,-2.7778,-2.783,-2.7874,-2.7933,-2.7939,-2.7965,-2.8001,-2.8048,-2.808,-2.8045,-2.8119,-2.8121,-2.81,-2.814,-2.8133,-2.8176,-2.8132,-2.8134,-2.8134,0,-2.7371,-2.7431,-2.752,-2.7596,-2.7621,-2.7665,-2.7734,-2.7784,-2.7848,-2.7874,-2.7921,-2.7951,-2.8013,-2.8006,-2.8091,-2.8066,-2.8099,-2.8127,-2.813,-2.8138,-2.8128,-2.8148,-2.8191,-2.8198,-2.8146,-2.8145,-2.8144,0,-2.7371,-2.7474,-2.7541,-2.7573,-2.7663,-2.7693,-2.7733,-2.7796,-2.7835,-2.7895,-2.7921,-2.7987,-2.8023,-2.8073,-2.812,-2.8111,-2.8201,-2.8198,-2.8224,-2.8223,-2.824,-2.8238,-2.8288,-2.8263,-2.8263,-2.8263,-2.8262,0,-2.7413,-2.7466,-2.7542,-2.7583,-2.7643,-2.7695,-2.7753,-2.7795,-2.7851,-2.79,-2.7937,-2.7982,-2.8042,-2.8095,-2.8132,-2.8197,-2.8213,-2.8236,-2.8245,-2.8232,-2.8229,-2.8253,-2.8251,-2.8264,-2.8264,-2.8264,-2.8263,0,-2.7423,-2.7476,-2.7551,-2.7631,-2.7652,-2.7693,-2.7762,-2.7803,-2.7845,-2.7907,-2.7924,-2.799,-2.8054,-2.8106,-2.8191,-2.8216,-2.8283,-2.8294,-2.8262,-2.8266,-2.8289,-2.8286,-2.8356,-2.8368,-2.8334,-2.8335,-2.8335,0,-2.7446,-2.7487,-2.7572,-2.7608,-2.7647,-2.7705,-2.7746,-2.7798,-2.7839,-2.7916,-2.7947,-2.8015,-2.8071,-2.8173,-2.8228,-2.8292,-2.8304,-2.8325,-2.8314,-2.83,-2.8304,-2.8301,-2.8305,-2.8325,-2.8325,-2.8325,-2.8325,0,-2.7481,-2.7505,-2.7563,-2.763,-2.7678,-2.7733,-2.7789,-2.7817,-2.7879,-2.7924,-2.7991,-2.8034,-2.8121,-2.8187,-2.8258,-2.8298,-2.8322,-2.8328,-2.8338,-2.8325,-2.8304,-2.8315,-2.8264,-2.8326,-2.8326,-2.8326,-2.8326,-2.8326,-2.7497,-2.7536,-2.7602,-2.7665,-2.7713,-2.7765,-2.7808,-2.7855,-2.7912,-2.7987,-2.8015,-2.8083,-2.8147,-2.8244,-2.8285,-2.8339,-2.8341,-2.8355,-2.8358,-2.8361,-2.8359,-2.8296,-2.8352,-2.8352,-2.8352,-2.8353,-2.8353,0,-2.7534,-2.7578,-2.7636,-2.7714,-2.7763,-2.7783,-2.7846,-2.7886,-2.7946,-2.8004,-2.8059,-2.8136,-2.8201,-2.8261,-2.8329,-2.8361,-2.8373,-2.8377,-2.8374,-2.8383,-2.8353,-2.8338,-2.8365,-2.8365,-2.8365,-2.8365,-2.8365,-2.8365,-2.7558,-2.7625,-2.7657,-2.7748,-2.7793,-2.786,-2.7895,-2.7943,-2.7989,-2.8074,-2.8128,-2.8167,-2.8226,-2.8299,-2.8359,-2.8375,-2.8398,-2.8398,-2.8417,-2.8387,-2.8385,-2.8383,-2.8369,-2.8403,-2.8403,-2.8442,-2.8443,-2.8443]}]]